EW5799 Weather Reports


Display with metric or nautical units.
time (UTC)temp
F
wind
direction
speed
MPH
gust
MPH
rain 1hr
in
rain 24hr
in
rain mn
in
humidity
%
barometer
mb
20210925130110 69 353 0.0 2.0 0.00 0.00 0.00 79 1018.5
20210925124722 68 348 0.0 1.0 0.00 0.00 0.00 84 1018.5
20210925123122 66 348 0.0 2.0 0.00 0.00 0.00 86 1018.5
20210925121607 66 349 1.0 2.0 0.00 0.00 0.00 88 1018.4
20210925120009 66 353 1.0 2.0 0.00 0.00 0.00 87 1018.4
20210925114516 65 345 1.0 2.0 0.00 0.00 0.00 87 1018.2
20210925113006 66 338 1.0 2.0 0.00 0.00 0.00 89 1018.2
20210925111506 66 348 0.0 1.0 0.00 0.00 0.00 86 1018.0
20210925110111 65 347 1.0 2.0 0.00 0.00 0.00 86 1017.8
20210925104642 66 342 1.0 2.0 0.00 0.00 0.00 88 1017.8
20210925103208 66 338 0.0 1.0 0.00 0.00 0.00 88 1017.5
20210925101636 66 338 0.0 1.0 0.00 0.00 0.00 89 1017.4
20210925100121 66 339 1.0 2.0 0.00 0.00 0.00 89 1017.4
20210925094600 66 344 0.0 2.0 0.00 0.00 0.00 86 1017.5
20210925093202 66 343 0.0 0.0 0.00 0.00 0.00 87 1017.4
20210925091634 66 343 1.0 2.0 0.00 0.00 0.00 87 1017.4
20210925090101 66 354 1.0 2.0 0.00 0.00 0.00 86 1017.4
20210925084600 66 342 1.0 2.0 0.00 0.00 0.00 87 1017.5
20210925083105 68 340 1.0 2.0 0.00 0.00 0.00 84 1017.5
20210925081547 68 338 1.0 2.0 0.00 0.00 0.00 81 1017.6
20210925080157 68 347 0.0 1.0 0.00 0.00 0.00 80 1017.6
20210925074629 68 347 0.0 1.0 0.00 0.00 0.00 84 1017.7
20210925073120 68 347 0.0 1.0 0.00 0.00 0.00 85 1017.7
20210925071538 68 347 1.0 1.0 0.00 0.00 0.00 85 1017.5
20210925070048 69 347 0.0 1.0 0.00 0.00 0.00 82 1017.4
20210925064501 69 347 0.0 1.0 0.00 0.00 0.00 80 1017.4
20210925063135 70 347 0.0 1.0 0.00 0.00 0.00 80 1017.4
20210925061710 70 346 0.0 1.0 0.00 0.00 0.00 80 1017.3
20210925060142 70 346 0.0 1.0 0.00 0.00 0.00 80 1017.3
20210925054644 70 346 0.0 1.0 0.00 0.00 0.00 80 1017.2
20210925053113 70 346 0.0 1.0 0.00 0.00 0.00 78 1017.3
20210925051613 70 346 0.0 1.0 0.00 0.00 0.00 77 1017.4
20210925050132 70 357 0.0 1.0 0.00 0.00 0.00 80 1017.4
20210925044618 70 359 0.0 2.0 0.00 0.00 0.00 78 1017.5
20210925043128 71 305 0.0 1.0 0.00 0.00 0.00 75 1017.5
20210925041627 71 194 0.0 1.0 0.00 0.00 0.00 73 1017.3
20210925040110 73 191 0.0 1.0 0.00 0.00 0.00 70 1017.3
20210925034632 73 161 1.0 3.0 0.00 0.00 0.00 66 1017.3
20210925033131 73 150 2.0 3.0 0.00 0.00 0.00 68 1017.4
20210925031551 73 180 1.0 2.0 0.00 0.00 0.00 69 1017.4
20210925030059 73 129 1.0 3.0 0.00 0.00 0.00 68 1017.3
20210925024537 73 135 2.0 3.0 0.00 0.00 0.00 69 1017.2
20210925023117 73 142 2.0 4.0 0.00 0.00 0.00 67 1017.1
20210925021648 73 119 2.0 4.0 0.00 0.00 0.00 68 1017.0
20210925020103 74 131 2.0 5.0 0.00 0.00 0.00 68 1016.9
20210925014635 74 113 3.0 6.0 0.00 0.00 0.00 69 1016.6
20210925013114 74 131 3.0 7.0 0.00 0.00 0.00 68 1016.8
20210925011633 74 125 4.0 7.0 0.00 0.00 0.00 69 1016.6
20210925010052 75 110 4.0 6.0 0.00 0.00 0.00 68 1016.4
20210925004602 75 125 4.0 7.0 0.00 0.00 0.00 65 1016.5
20210925003115 76 130 5.0 8.0 0.00 0.00 0.00 63 1016.5
20210925001536 76 124 6.0 9.0 0.00 0.00 0.00 64 1016.5
20210925000116 76 113 5.0 8.0 0.00 0.00 0.00 64 1016.5
20210924234531 76 122 4.0 7.0 0.00 0.00 0.00 63 1016.5
20210924233101 77 101 5.0 8.0 0.00 0.00 0.00 61 1016.4
20210924231533 77 96 4.0 9.0 0.00 0.00 0.00 65 1016.5
20210924230034 77 91 5.0 8.0 0.00 0.00 0.00 62 1016.4
20210924224516 77 108 6.0 9.0 0.00 0.00 0.00 61 1016.4
20210924223016 77 105 5.0 9.0 0.00 0.00 0.00 62 1016.5
20210924221515 77 85 4.0 8.0 0.00 0.00 0.00 62 1016.4
20210924220020 77 82 5.0 10.0 0.00 0.00 0.00 61 1016.5
20210924214506 77 103 5.0 8.0 0.00 0.00 0.00 59 1016.5
20210924213004 77 122 4.0 11.0 0.00 0.00 0.00 58 1016.4
20210924211821 77 113 6.0 9.0 0.00 0.00 0.00 62 1016.5
20210924210208 77 68 7.0 11.0 0.00 0.00 0.00 60 1016.5
20210924204633 77 101 6.0 10.0 0.00 0.00 0.00 62 1016.7
20210924203102 77 84 3.0 9.0 0.00 0.00 0.00 60 1016.7
20210924201643 77 115 3.0 11.0 0.00 0.00 0.00 56 1016.8
20210924200136 77 131 6.0 12.0 0.00 0.00 0.00 55 1016.8
20210924194614 78 106 6.0 12.0 0.00 0.00 0.00 50 1017.0
20210924193241 79 42 5.0 12.0 0.00 0.00 0.00 50 1017.2
20210924191644 79 316 3.0 9.0 0.00 0.00 0.00 52 1017.4
20210924190130 78 103 2.0 10.0 0.00 0.00 0.00 49 1017.7
20210924184600 78 311 3.0 10.0 0.00 0.00 0.00 49 1017.9
20210924183056 78 106 5.0 10.0 0.00 0.00 0.00 53 1018.0
20210924181646 78 96 3.0 9.0 0.00 0.00 0.00 52 1018.2
20210924180131 78 351 6.0 11.0 0.00 0.00 0.00 49 1018.6
20210924174550 78 45 1.0 10.0 0.00 0.00 0.00 50 1018.6
20210924173101 77 295 4.0 10.0 0.00 0.00 0.00 50 1018.8
20210924171603 77 340 3.0 11.0 0.00 0.00 0.00 49 1018.9
20210924170041 76 84 6.0 10.0 0.00 0.00 0.00 56 1019.0
20210924164545 76 77 6.0 11.0 0.00 0.00 0.00 55 1019.1
20210924163049 76 96 6.0 11.0 0.00 0.00 0.00 57 1019.2
20210924161615 76 70 5.0 11.0 0.00 0.00 0.00 58 1019.0
20210924160129 77 98 3.0 11.0 0.00 0.00 0.00 57 1019.0
20210924154542 77 77 3.0 12.0 0.00 0.00 0.00 58 1019.0
20210924153038 77 101 6.0 13.0 0.00 0.00 0.00 56 1019.0
20210924151606 76 77 5.0 13.0 0.00 0.00 0.00 59 1018.8
20210924150025 76 70 7.0 13.0 0.00 0.00 0.00 61 1018.6
20210924144548 76 92 5.0 11.0 0.00 0.00 0.00 63 1018.4
20210924141538 75 356 3.0 7.0 0.00 0.00 0.00 72 1018.4
20210924140009 74 321 3.0 6.0 0.00 0.00 0.00 76 1018.4
20210924134535 72 328 3.0 6.0 0.00 0.00 0.00 79 1018.4
20210924133115 72 2 3.0 4.0 0.00 0.00 0.00 82 1018.3
20210924131557 70 356 2.0 4.0 0.00 0.00 0.00 84 1018.2